Weather History for Big Rapids, MI

Change the Weather History Date:

Monday, July 22, 2013

  Actual Average Record
Temperature  
Mean Temperature 72 °F -  
Max Temperature 83 °F 82 °F 93 °F (1972)
Min Temperature 60 °F 57 °F 43 °F (1981)
Cooling Degree Days 6    
Growing Degree Days 22 (Base 50)    
Moisture  
Dew Point 59 °F    
Average Humidity 63    
Maximum Humidity 90    
Minimum Humidity 44    
Precipitation  
Precipitation 0.00 in - - ()
Sea Level Pressure  
Sea Level Pressure 29.85 in    
Wind  
Wind Speed 3 mph (SSW)    
Max Wind Speed 14 mph    
Max Gust Speed 18 mph    
Visibility 10 miles    
Events Rain    
Averages and records for this station are not official NWS values.
T = Trace of Precipitation, MM = Missing Value Source: NWS Daily Summary

Daily Weather History Graph

Daily Weather History Graph

Search for Another Location

Airport:

Trip Planner

Search our weather history database for the weather conditions in past years. The results will help you decide how hot, cold, wet, or windy it might be!

Date:

Astronomy

Jul. 22, 2013 Rise Set
Actual Time 6:20 AM EDT 9:15 PM EDT
Civil Twilight 5:46 AM EDT 9:49 PM EDT
Nautical Twilight 5:03 AM EDT 10:32 PM EDT
Astronomical Twilight 4:12 AM EDT 11:22 PM EDT
Moon 8:57 PM EDT (7/22) 6:18 AM EDT (7/22)
Length of Visible Light 16h 02m
Length of Day
14h 54m
Full, 100% of the Moon is Illuminated
Jul 22
Full
Jul 22
Full
Jul 29
Last Quarter
Aug 6
New
Aug 14
First Quarter

Hourly Weather History & Observations

Time (EDT) Temp. Heat Index Dew Point Humidity Pressure Visibility Wind Dir Wind Speed Gust Speed Precip Events Conditions
12:15 AM 70.5 °F - 51.8 °F 51% 29.97 in 10.0 mi Calm Calm - N/A Rain Light Rain
12:34 AM 67.1 °F - 55.6 °F 66% 29.97 in 10.0 mi Calm Calm - N/A   Light Drizzle
12:55 AM 65.7 °F - 56.1 °F 71% 29.96 in 10.0 mi SSE 4.6 mph - N/A   Light Drizzle
1:15 AM 65.3 °F - 55.9 °F 72% 29.95 in 10.0 mi SE 4.6 mph - N/A   Mostly Cloudy
1:34 AM 65.8 °F - 54.1 °F 66% 29.95 in 10.0 mi Calm Calm - N/A   Scattered Clouds
1:55 AM 64.8 °F - 54.9 °F 70% 29.94 in 10.0 mi Calm Calm - N/A   Mostly Cloudy
2:15 AM 64.4 °F - 54.9 °F 71% 29.93 in 10.0 mi Calm Calm - N/A   Scattered Clouds
2:34 AM 63.7 °F - 54.9 °F 73% 29.92 in 10.0 mi Calm Calm - N/A   Clear
2:55 AM 63.7 °F - 54.5 °F 72% 29.92 in 10.0 mi Calm Calm - N/A   Clear
3:15 AM 63.7 °F - 54.7 °F 72% 29.92 in 10.0 mi Calm Calm - N/A   Scattered Clouds
3:34 AM 64.0 °F - 54.9 °F 72% 29.92 in 10.0 mi Calm Calm - N/A   Scattered Clouds
3:55 AM 63.7 °F - 55.4 °F 74% 29.91 in 10.0 mi Calm Calm - N/A   Overcast
4:15 AM 63.5 °F - 55.4 °F 75% 29.91 in 10.0 mi Calm Calm - N/A   Overcast
4:34 AM 63.5 °F - 55.4 °F 75% 29.90 in 10.0 mi East 3.5 mph - N/A   Overcast
4:55 AM 63.3 °F - 55.4 °F 75% 29.90 in 10.0 mi Calm Calm - N/A   Overcast
5:14 AM 62.6 °F - 55.4 °F 77% 29.89 in 10.0 mi Calm Calm - N/A   Overcast
5:34 AM 61.5 °F - 55.6 °F 81% 29.90 in 10.0 mi Calm Calm - N/A   Scattered Clouds
5:55 AM 61.2 °F - 57.0 °F 86% 29.90 in 10.0 mi Calm Calm - N/A   Clear
6:14 AM 61.0 °F - 57.7 °F 89% 29.90 in 10.0 mi Calm Calm - N/A   Clear
6:34 AM 61.0 °F - 57.7 °F 89% 29.90 in 10.0 mi Calm Calm - N/A   Clear
6:55 AM 60.6 °F - 57.4 °F 89% 29.90 in 10.0 mi Calm Calm - N/A   Clear
7:14 AM 61.7 °F - 58.6 °F 90% 29.90 in 10.0 mi Calm Calm - N/A   Clear
7:34 AM 63.1 °F - 59.0 °F 86% 29.90 in 10.0 mi Calm Calm - N/A   Clear
7:55 AM 63.5 °F - 59.2 °F 86% 29.89 in 10.0 mi ESE 4.6 mph - N/A   Clear
8:14 AM 65.3 °F - 58.5 °F 78% 29.89 in 10.0 mi East 3.5 mph - N/A   Scattered Clouds
8:34 AM 66.6 °F - 58.3 °F 75% 29.89 in 10.0 mi SE 5.8 mph - N/A   Scattered Clouds
8:55 AM 68.0 °F - 58.5 °F 71% 29.89 in 10.0 mi SSE 6.9 mph - N/A   Mostly Cloudy
9:14 AM 69.1 °F - 59.0 °F 70% 29.89 in 10.0 mi SSE 6.9 mph - N/A   Mostly Cloudy
9:35 AM 70.2 °F - 59.2 °F 68% 29.89 in 10.0 mi South 5.8 mph - N/A   Scattered Clouds
9:55 AM 71.6 °F - 59.0 °F 64% 29.89 in 10.0 mi SSE 5.8 mph - N/A   Scattered Clouds
10:14 AM 72.7 °F - 59.2 °F 62% 29.89 in 10.0 mi SSE 6.9 mph - N/A   Scattered Clouds
10:35 AM 73.4 °F - 59.2 °F 61% 29.88 in 10.0 mi SSE 3.5 mph - N/A   Clear
10:55 AM 74.8 °F - 59.5 °F 59% 29.87 in 10.0 mi SSW 6.9 mph - N/A   Clear
11:14 AM 77.2 °F - 60.1 °F 55% 29.87 in 10.0 mi South 5.8 mph - N/A   Scattered Clouds
11:35 AM 75.9 °F - 59.5 °F 57% 29.87 in 10.0 mi South 6.9 mph - N/A   Mostly Cloudy
11:55 AM 76.3 °F - 59.9 °F 57% 29.87 in 10.0 mi South 8.1 mph - N/A   Overcast
12:14 PM 76.6 °F - 60.1 °F 56% 29.87 in 10.0 mi SW 3.5 mph - N/A   Overcast
12:35 PM 78.8 °F - 60.4 °F 53% 29.86 in 10.0 mi WSW 9.2 mph - N/A   Overcast
12:55 PM 80.1 °F 81.0 °F 60.3 °F 51% 29.86 in 10.0 mi South 8.1 mph - N/A   Overcast
1:14 PM 80.2 °F 81.0 °F 59.9 °F 50% 29.85 in 10.0 mi SW 10.4 mph - N/A   Overcast
1:35 PM 79.9 °F - 59.9 °F 50% 29.85 in 10.0 mi SW 5.8 mph - N/A   Overcast
1:55 PM 80.4 °F 81.2 °F 60.4 °F 50% 29.84 in 10.0 mi WSW 6.9 mph - N/A   Overcast
2:14 PM 80.2 °F 81.0 °F 60.1 °F 50% 29.85 in 10.0 mi WSW 8.1 mph - N/A   Overcast
2:35 PM 80.2 °F 81.2 °F 61.0 °F 52% 29.84 in 10.0 mi WSW 8.1 mph - N/A   Overcast
2:55 PM 80.8 °F 81.6 °F 61.0 °F 51% 29.83 in 10.0 mi SW 6.9 mph - N/A   Mostly Cloudy
3:15 PM 81.5 °F 82.2 °F 61.0 °F 50% 29.82 in 10.0 mi SSW 9.2 mph - N/A   Scattered Clouds
3:35 PM 82.0 °F 82.4 °F 60.3 °F 47% 29.81 in 10.0 mi SSW 9.2 mph - N/A   Scattered Clouds
3:54 PM 83.1 °F 83.2 °F 59.5 °F 45% 29.81 in 10.0 mi WSW 13.8 mph 18.4 mph N/A   Scattered Clouds
4:15 PM 83.1 °F 83.3 °F 60.1 °F 46% 29.80 in 10.0 mi SW 10.4 mph - N/A   Clear
4:35 PM 81.5 °F 82.0 °F 60.3 °F 48% 29.80 in 10.0 mi SW 8.1 mph - N/A   Mostly Cloudy
4:54 PM 83.3 °F 83.4 °F 59.9 °F 45% 29.79 in 10.0 mi SW 10.4 mph 17.3 mph N/A   Scattered Clouds
5:15 PM 83.7 °F 83.6 °F 59.9 °F 44% 29.78 in 10.0 mi SW 9.2 mph - N/A   Scattered Clouds
5:35 PM 81.9 °F 82.2 °F 59.9 °F 47% 29.78 in 10.0 mi SW 9.2 mph - N/A   Scattered Clouds
5:54 PM 81.9 °F 82.3 °F 60.3 °F 48% 29.77 in 10.0 mi SSW 10.4 mph - N/A   Scattered Clouds
6:15 PM 82.6 °F 82.8 °F 59.7 °F 46% 29.77 in 10.0 mi SSW 10.4 mph - N/A   Scattered Clouds
6:35 PM 81.5 °F 82.0 °F 60.3 °F 48% 29.76 in 10.0 mi SW 8.1 mph 16.1 mph N/A   Scattered Clouds
6:54 PM 81.5 °F 81.8 °F 59.2 °F 47% 29.75 in 10.0 mi SW 8.1 mph - N/A   Clear
7:15 PM 81.5 °F 81.8 °F 59.4 °F 47% 29.74 in 10.0 mi WSW 10.4 mph 16.1 mph N/A   Clear
7:35 PM 80.8 °F 81.4 °F 59.7 °F 49% 29.74 in 10.0 mi SW 6.9 mph - N/A   Clear
7:54 PM 80.1 °F 80.9 °F 59.9 °F 50% 29.75 in 10.0 mi SSW 8.1 mph - N/A   Clear
8:15 PM 78.8 °F - 60.1 °F 53% 29.77 in 10.0 mi West 10.4 mph - N/A   Clear
8:35 PM 77.9 °F - 59.9 °F 54% 29.77 in 10.0 mi WSW 6.9 mph - N/A   Clear
8:54 PM 75.9 °F - 60.3 °F 58% 29.77 in 10.0 mi WSW 4.6 mph - N/A   Clear
9:15 PM 75.0 °F - 60.4 °F 60% 29.75 in 10.0 mi SSW 6.9 mph - N/A   Clear
9:35 PM 72.5 °F - 60.8 °F 67% 29.74 in 10.0 mi SSW 6.9 mph - N/A   Clear
9:54 PM 73.4 °F - 60.8 °F 65% 29.74 in 10.0 mi SSW 3.5 mph - N/A   Clear
10:15 PM 72.3 °F - 60.6 °F 67% 29.75 in 10.0 mi Calm Calm - N/A   Clear
10:35 PM 71.6 °F - 61.7 °F 71% 29.76 in 10.0 mi West 4.6 mph - N/A   Mostly Cloudy
10:54 PM 70.9 °F - 61.5 °F 72% 29.76 in 10.0 mi SSW 4.6 mph - N/A   Mostly Cloudy
11:15 PM 72.5 °F - 61.7 °F 69% 29.76 in 10.0 mi SW 5.8 mph - N/A   Clear
11:34 PM 72.1 °F - 61.7 °F 70% 29.76 in 10.0 mi SW 4.6 mph - N/A   Scattered Clouds
11:54 PM 72.3 °F - 61.9 °F 70% 29.75 in 10.0 mi SSW 5.8 mph - N/A   Scattered Clouds